sat.trackr.live / text

‹ back to catalog

STARLINK-31263

NORAD 58832 · 2024-017G

PAYLOAD ACTIVE UNKNOWN

§ Identity

Operator
Country
US
Launch date
2024-01-24
Launch site
AFWTR
Launch vehicle
Mass (kg)
RCS (m²)

Purposes: comms

External: N2YO · Heavens-Above · Gunter

§ Orbital elements

Epoch: 2026-05-25T04:00:03.998880Z

Period
93.90 min
Inclination
53.1591°
Eccentricity
0.0001429
Mean motion
15.33546060 rev/d
Perigee alt
464.3 km
Apogee alt
466.2 km
Semi-major
6,843.4 km
B*
7.6310e-4
RAAN
198.6106°
Arg perigee
103.5957°
Mean anomaly
225.4979°
Rev number
569

§ Raw data

STARLINK-312631 58832U 24017G   26145.16671295  .00024805  00000+0  76310-3 0  99932 58832  53.1591 198.6106 0001429 103.5957 225.4979 15.33546060  5690

JSON: /api/v1/satellites/58832 · /tle

For live sub-satellite position, see the globe view (requires WebGL).

§ Visibility from observer

Set your observer location to see the next 7 days of passes ≥ 10°. The values pass through the URL so the page stays shareable.

No JS? Fill the form by hand. The geolocation button needs JavaScript.